Location: Wavehorne
(51.0500°N, 0.8333°E)
Time: 20:02:06
(UTC+00:00)

Cosmos 2221 - Pass Details

Date: 20 June 2021
Orbit: 591 x 616 km, 82.5° (Epoch: 02 August)

Event Time Altitude Azimuth Distance (km) Brightness Sun altitude
Rises 01:56:17 0° 341° (NNW) 2,866 6.7 -11.1°
Reaches altitude 10° 01:58:43 10° 330° (NNW) 1,954 5.6 -10.9°
Maximum altitude 02:02:25 28° 271° (W) 1,124 3.6 -10.7°
Enters shadow 02:05:17 14° 218° (SW) 1,663 4.1 -10.4°
